AEE605 EGLL-LGAV

Flight info

Callsign AEE605
Flight time N/A
Altitude 35000
Route DET L6 DVR UL9 KONAN DCT KOK DCT SISGA DCT KOMOB DCT BANUX DCT BABEG DCT KUMOM DCT NIPEL DCT ABISO DCT NEMEK DCT ELTIB/N0454F370 DCT PINDO DCT PIKOS UL607 XORKI
Aircraft A320/M-SDE3FGHIRWY/LB1

Departure

Time 2026-04-30 18:37
Airport London Heathrow Airport (EGLL)

Arrival

Time N/A
Airport Athens Eleftherios Venizelos International Airport (LGAV)
Time Latitude Longitude Altitude Speed Heading
2026-04-30 18:09 51.47018 -0.44405 86 ft 0 kts 90°
2026-04-30 18:22 51.47018 -0.44426 88 ft 4 kts 90°
2026-04-30 18:23 51.47018 -0.44470 86 ft 4 kts 90°
2026-04-30 18:23 51.47017 -0.44505 86 ft 3 kts 91°
2026-04-30 18:23 51.47023 -0.44542 87 ft 4 kts 139°
2026-04-30 18:23 51.47045 -0.44556 86 ft 3 kts 180°
2026-04-30 18:24 51.47061 -0.44556 88 ft 0 kts 180°
2026-04-30 18:27 51.47047 -0.44556 86 ft 4 kts 179°
2026-04-30 18:27 51.47002 -0.44553 86 ft 9 kts 177°
2026-04-30 18:28 51.46938 -0.44547 86 ft 0 kts 176°
2026-04-30 18:28 51.46903 -0.44549 86 ft 6 kts 183°
2026-04-30 18:29 51.46851 -0.44553 86 ft 9 kts 182°
2026-04-30 18:29 51.46664 -0.44712 86 ft 15 kts 269°
2026-04-30 18:30 51.46662 -0.44995 86 ft 15 kts 270°
2026-04-30 18:30 51.46662 -0.45439 86 ft 18 kts 271°
2026-04-30 18:31 51.46661 -0.45641 86 ft 18 kts 268°
2026-04-30 18:31 51.46661 -0.46037 86 ft 18 kts 270°
2026-04-30 18:32 51.46659 -0.46482 89 ft 20 kts 269°
2026-04-30 18:32 51.46659 -0.46706 89 ft 20 kts 270°
2026-04-30 18:32 51.46657 -0.47152 87 ft 21 kts 270°
2026-04-30 18:33 51.46657 -0.47387 87 ft 22 kts 270°
2026-04-30 18:33 51.46655 -0.47849 86 ft 14 kts 270°
2026-04-30 18:33 51.46654 -0.48003 86 ft 15 kts 269°
2026-04-30 18:34 51.46654 -0.48088 86 ft 0 kts 269°
2026-04-30 18:35 51.46654 -0.48090 86 ft 1 kts 269°
2026-04-30 18:35 51.46654 -0.48131 86 ft 8 kts 269°
2026-04-30 18:36 51.46551 -0.48219 87 ft 11 kts 178°
2026-04-30 18:36 51.46484 -0.48182 88 ft 11 kts 118°
2026-04-30 18:36 51.46483 -0.47151 89 ft 100 kts 89°
2026-04-30 18:37 51.46489 -0.45790 86 ft 143 kts 90°
2026-04-30 18:37 51.46486 -0.44019 273 ft 166 kts 90°
2026-04-30 18:37 51.46483 -0.42361 919 ft 163 kts 95°
2026-04-30 18:37 51.46037 -0.40703 1485 ft 170 kts 127°
2026-04-30 18:38 51.45296 -0.39083 1737 ft 191 kts 122°
2026-04-30 18:38 51.44556 -0.37146 1996 ft 216 kts 120°
2026-04-30 18:38 51.43785 -0.34956 2487 ft 234 kts 114°
2026-04-30 18:38 51.43348 -0.32405 3298 ft 240 kts 105°
2026-04-30 18:39 51.42971 -0.29774 4127 ft 245 kts 106°
2026-04-30 18:39 51.42580 -0.27057 4857 ft 254 kts 107°
2026-04-30 18:39 51.42187 -0.24242 5580 ft 262 kts 106°
2026-04-30 18:39 51.41797 -0.21377 6409 ft 265 kts 105°
2026-04-30 18:40 51.41404 -0.18467 7167 ft 269 kts 105°
2026-04-30 18:40 51.41004 -0.15528 7945 ft 271 kts 105°
2026-04-30 18:40 51.40600 -0.12558 8715 ft 274 kts 105°
2026-04-30 18:40 51.40189 -0.09559 9464 ft 277 kts 105°
2026-04-30 18:41 51.39773 -0.06523 10189 ft 282 kts 105°
2026-04-30 18:41 51.39332 -0.03334 10376 ft 305 kts 105°
2026-04-30 18:41 51.38849 0.00105 10521 ft 328 kts 105°
2026-04-30 18:41 51.38333 0.03764 10784 ft 343 kts 105°
2026-04-30 18:42 51.37815 0.07477 11315 ft 349 kts 105°
2026-04-30 18:42 51.36745 0.15166 12555 ft 355 kts 105°
2026-04-30 18:42 51.36203 0.19039 13173 ft 358 kts 105°
2026-04-30 18:45 51.30466 0.59239 18264 ft 388 kts 105°